Date String (YYYY-MM-DD hh:mm:ss) UTC,Instrument flags,Ambient pressure (hPa),Sample flow (lpm),Bypass flow (lpm),Sample temperature (°C),Ambient temperature (°C),ASC tube jacket temperature (°C),LED temperature (°C),Box temperature (°C),Sample RH (%),Span deviation,Mass concentration (μg/m³),Mass concentration (μg/m³),Mass concentration (μg/m³)
DateTimeUTC,F1_M11,P_M11,Q1_M11,Q2_M11,T1_M11,T2_M11,T3_M11,T4_M11,T5_M11,U1_M11,ZSPAN_M11,X0_M11,X2_M11,X1_M11
2022-02-03 07:00:00,,0828.0,4.99,0.00,22.4,22.0,00.0,31.4,23.9,04.1,0000.0,0005.78,0004.25,0004.02
2022-02-03 07:01:00,,0828.0,5.01,0.00,22.2,21.7,00.0,31.4,23.7,04.1,0000.0,0005.92,0004.31,0004.09
2022-02-03 07:02:00,,0827.9,5.00,0.00,22.1,21.4,00.0,31.3,23.5,04.1,0000.0,0006.17,0004.37,0004.14
2022-02-03 07:03:00,,0827.9,5.00,0.00,22.0,21.3,00.0,31.3,23.5,04.1,0000.0,0006.24,0004.39,0004.16
2022-02-03 07:04:00,,0827.9,5.00,0.00,22.1,21.9,00.0,31.3,23.7,04.1,0000.0,0006.28,0004.42,0004.20
2022-02-03 07:05:00,,0827.9,5.01,0.00,22.2,22.7,00.0,31.3,24.0,04.0,0000.0,0006.56,0004.52,0004.28
2022-02-03 07:06:00,,0828.0,5.00,0.00,22.4,23.3,00.0,31.4,24.3,03.9,0000.0,0006.98,0004.65,0004.38
2022-02-03 07:07:00,,0828.0,4.99,0.00,22.5,23.2,00.0,31.4,24.3,03.9,0000.0,0007.41,0004.73,0004.46
2022-02-03 07:08:00,,0827.9,5.00,0.00,22.5,22.8,00.0,31.4,24.2,03.9,0000.0,0007.50,0004.82,0004.55
2022-02-03 07:09:00,,0827.9,5.00,0.00,22.4,22.4,00.0,31.4,24.1,03.9,0000.0,0007.68,0004.93,0004.64
2022-02-03 07:10:00,,0827.9,5.01,0.00,22.3,22.0,00.0,31.4,23.9,03.8,0000.0,0007.86,0005.04,0004.73
2022-02-03 07:11:00,,0827.8,5.01,0.00,22.2,21.7,00.0,31.3,23.7,03.8,0000.0,0007.99,0005.13,0004.80
2022-02-03 07:12:00,,0827.8,4.99,0.00,22.1,21.4,00.0,31.3,23.5,03.8,0000.0,0008.13,0005.22,0004.87
2022-02-03 07:13:00,,0827.8,4.99,0.00,22.0,21.2,00.0,31.3,23.4,03.9,0001.3,0008.13,0005.26,0004.92
2022-02-03 07:14:00,,0827.8,5.00,0.00,22.0,21.7,00.0,31.3,23.6,03.9,0000.0,0008.14,0005.30,0004.97
2022-02-03 07:15:00,,0827.8,5.00,0.00,22.2,22.4,00.0,31.3,23.9,03.9,0001.1,0008.20,0005.32,0004.98
2022-02-03 07:16:00,,0827.8,5.01,0.00,22.3,23.0,00.0,31.3,24.2,03.7,0001.7,0008.33,0005.36,0005.03
2022-02-03 07:17:00,,0827.7,4.99,0.00,22.4,22.9,00.0,31.3,24.2,03.7,0001.0,0008.31,0005.39,0005.09
2022-02-03 07:18:00,,0827.7,5.00,0.00,22.3,22.5,00.0,31.3,24.0,03.7,0004.1,0008.14,0005.41,0005.12
2022-02-03 07:19:00,,0827.7,5.00,0.00,22.3,22.0,00.0,31.3,23.8,03.7,0003.8,0008.17,0005.41,0005.12
2022-02-03 07:20:00,,0827.7,5.01,0.00,22.1,21.6,00.0,31.3,23.6,03.8,0004.1,0008.20,0005.42,0005.11
2022-02-03 07:21:00,,0827.7,5.00,0.00,22.0,21.2,00.0,31.2,23.4,03.8,0004.0,0008.13,0005.38,0005.08
2022-02-03 07:22:00,,0827.7,5.00,0.00,21.9,21.1,00.0,31.2,23.3,03.8,0003.6,0008.10,0005.37,0005.08
2022-02-03 07:23:00,,0827.7,5.00,0.00,22.0,21.7,00.0,31.2,23.6,03.7,0003.0,0008.15,0005.41,0005.11
2022-02-03 07:24:00,,0827.7,5.01,0.00,22.1,22.4,00.0,31.2,23.9,03.7,0003.3,0008.33,0005.49,0005.16
2022-02-03 07:25:00,,0827.7,4.99,0.00,22.3,22.9,00.0,31.3,24.1,03.6,0003.8,0008.44,0005.55,0005.21
2022-02-03 07:26:00,,0827.7,5.01,0.00,22.4,22.9,00.0,31.3,24.1,03.6,0003.4,0008.48,0005.59,0005.27
2022-02-03 07:27:00,,0827.7,5.00,0.00,22.3,22.3,00.0,31.3,23.8,03.6,0003.6,0008.42,0005.60,0005.26
2022-02-03 07:28:00,,0827.8,4.99,0.00,22.1,21.8,00.0,31.2,23.5,03.6,0003.4,0008.46,0005.62,0005.26
2022-02-03 07:29:00,,0827.7,5.01,0.00,22.0,21.3,00.0,31.2,23.2,03.6,0003.5,0008.45,0005.63,0005.26
2022-02-03 07:30:00,,0827.7,5.00,0.00,21.8,20.9,00.0,31.1,23.0,03.6,0003.7,0008.50,0005.67,0005.29
2022-02-03 07:31:00,,0827.7,5.00,0.00,21.8,21.2,00.0,31.1,23.1,03.6,0003.2,0008.41,0005.67,0005.33
2022-02-03 07:32:00,,0827.7,5.00,0.00,21.9,21.8,00.0,31.1,23.4,03.6,0003.6,0008.44,0005.70,0005.37
2022-02-03 07:33:00,,0827.7,4.99,0.00,22.0,22.4,00.0,31.1,23.7,03.6,0003.9,0008.45,0005.68,0005.36
2022-02-03 07:34:00,,0827.7,5.01,0.00,22.1,22.8,00.0,31.2,24.0,03.5,0004.0,0008.42,0005.66,0005.35
2022-02-03 07:35:00,,0827.7,4.99,0.00,22.3,23.0,00.0,31.2,24.1,03.4,0003.5,0008.31,0005.64,0005.36
2022-02-03 07:36:00,,0827.7,5.00,0.00,22.2,22.5,00.0,31.2,23.9,03.4,0003.4,0008.30,0005.66,0005.38
2022-02-03 07:37:00,,0827.7,4.99,0.00,22.1,22.0,00.0,31.2,23.5,03.5,0004.0,0008.39,0005.70,0005.39
2022-02-03 07:38:00,,0827.7,5.02,0.00,21.9,21.4,00.0,31.1,23.3,03.5,0003.6,0008.40,0005.72,0005.40
2022-02-03 07:39:00,,0827.7,4.99,0.00,21.8,21.0,00.0,31.1,23.0,03.5,0003.8,0008.39,0005.71,0005.40
2022-02-03 07:40:00,,0827.7,4.99,0.00,21.7,21.1,00.0,31.0,23.1,03.5,0003.6,0008.43,0005.74,0005.42
2022-02-03 07:41:00,,0827.7,5.00,0.00,21.8,21.7,00.0,31.1,23.4,03.5,0003.2,0008.43,0005.74,0005.44
2022-02-03 07:42:00,,0827.7,5.00,0.00,22.0,22.2,00.0,31.1,23.6,03.5,0003.0,0008.49,0005.78,0005.45
2022-02-03 07:43:00,,0827.7,5.01,0.00,22.1,22.7,00.0,31.1,23.9,03.4,0002.0,0008.53,0005.80,0005.46
2022-02-03 07:44:00,,0827.7,5.00,0.00,22.2,23.0,00.0,31.2,24.1,03.4,0001.6,0008.64,0005.87,0005.49
2022-02-03 07:45:00,,0827.6,4.99,0.00,22.3,22.8,00.0,31.2,24.0,03.4,0001.4,0008.69,0005.89,0005.49
2022-02-03 07:46:00,,0827.6,5.01,0.00,22.2,22.2,00.0,31.2,23.7,03.4,0001.2,0008.72,0005.89,0005.49
2022-02-03 07:47:00,,0827.6,5.00,0.00,22.0,21.6,00.0,31.1,23.3,03.4,0001.4,0008.92,0005.89,0005.50
2022-02-03 07:48:00,,0827.7,4.99,0.00,21.8,21.0,00.0,31.1,23.0,03.5,0001.5,0009.16,0005.89,0005.52
2022-02-03 07:49:00,,0827.6,5.01,0.00,21.6,20.8,00.0,31.0,22.9,03.5,0001.4,0009.10,0005.88,0005.53
2022-02-03 07:50:00,,0827.7,4.99,0.00,21.7,21.3,00.0,31.0,23.1,03.5,0001.3,0009.27,0005.85,0005.52
2022-02-03 07:51:00,,0827.6,5.01,0.00,21.8,21.9,00.0,31.0,23.4,03.5,0001.6,0009.50,0005.84,0005.52
2022-02-03 07:52:00,,0827.6,5.01,0.00,22.0,22.4,00.0,31.1,23.7,03.5,0001.9,0009.55,0005.87,0005.53
2022-02-03 07:53:00,,0827.6,5.00,0.00,22.1,22.9,00.0,31.1,23.9,03.4,0001.6,0009.48,0005.84,0005.51
2022-02-03 07:54:00,,0827.6,5.00,0.00,22.2,23.2,00.0,31.1,24.1,03.4,0001.5,0009.39,0005.81,0005.50
2022-02-03 07:55:00,,0827.6,5.01,0.00,22.2,22.7,00.0,31.1,23.9,03.4,0001.1,0009.28,0005.77,0005.49
2022-02-03 07:56:00,,0827.6,5.00,0.00,22.1,21.9,00.0,31.1,23.6,03.4,0001.2,0009.16,0005.73,0005.47
2022-02-03 07:57:00,,0827.7,4.99,0.00,21.9,21.3,00.0,31.1,23.2,03.5,0001.7,0009.18,0005.71,0005.46
2022-02-03 07:58:00,,0827.6,5.00,0.00,21.7,20.7,00.0,31.0,22.9,03.5,0001.1,0009.10,0005.72,0005.45
2022-02-03 07:59:00,,0827.6,5.00,0.00,21.6,20.8,00.0,31.0,22.9,03.5,0000.7,0008.78,0005.75,0005.44
